{"data":{"norad_id":59362,"epoch":"2026-05-25T03:30:19.550304Z","epoch_age_seconds":62301,"freshness":"FRESH","line1":"1 59362U 24060Q   26145.14605961  .00002128  00000+0  86875-4 0  9997","line2":"2 59362  43.0010 188.2581 0001259 275.7704  84.3004 15.27560481121751","mean_motion":15.27560481,"eccentricity":0.0001259,"inclination_deg":43.001,"raan_deg":188.2581,"arg_perigee_deg":275.7704,"mean_anomaly_deg":84.3004,"bstar":8.6875e-5,"rev_number":12175,"period_min":94.26795324381,"perigee_km":482.2437128819,"apogee_km":483.97137425797,"semimajor_km":6861.2445435699,"source":"CELESTRAK","updated_at":"2026-05-25T13:38:18.911208Z"}}